Home > Weather > New City > Past weeks

Flag for USA Past Weather in New City, New York, USA — Yesterday and Last 2 Weeks

Now
79 °F

Partly sunny.


Feels Like: 81 °F
Forecast: 64 / 82 °F
Wind: 13 mph from Southeast

Location: Westchester County Airport

Current Time: Jul 1, 2016 at 3:07:12 PM

Latest Report: Jul 1, 2016 at 1:56 PM


Visibility: 10 mi

Pressure: 29.93 "Hg

Humidity: 65%

Dew Point: 66 °F

Location of New CityLocation

Past Weather in New City — Graph

°F

New City Temperature Yesterday

Maximum temperature yesterday: 84 °F (at 3:56 PM)
Minimum temperature yesterday: 63 °F (at 2:56 AM)
Average temperature yesterday: 73 °F

High & Low Weather Summary for the Past Weeks

 TemperatureHumidityPressure
High86 °F (Jun 21, 4:56 PM)100% (Jun 28, 11:56 PM)30.30 "Hg (Jun 28, 11:56 PM)
Low55 °F (Jun 18, 5:56 AM)26% (Jun 21, 3:56 PM)29.72 "Hg (Jun 16, 5:56 PM)
Average71 °F62%30.00 "Hg
* Reported Jun 16 1:56 PM — Jul 1 1:56 PM, New City, Weather by CustomWeather, © 2016

Note: Actual official high and low records may vary slightly from our data, if they occured in-between our weather recording intervals... More about our weather records

Advertising

New City Weather History for the Previous 24 Hours

Scroll right to see more
 ConditionsComfort  
Time TempWeatherWind HumidityBarometerVisibility
1:56 PM
Fri, Jul 1
79 °FPartly sunny.13 mph65%29.93 "Hg10 mi
12:56 PM75 °FBroken clouds.10 mph76%29.96 "Hg10 mi
11:56 AM76 °FBroken clouds.12 mph80%29.97 "Hg10 mi
10:56 AM78 °FScattered clouds.12 mph69%29.97 "Hg10 mi
9:56 AM76 °FScattered clouds.7 mph74%29.98 "Hg10 mi
8:56 AM74 °FScattered clouds.6 mph76%29.99 "Hg10 mi
7:56 AM71 °FPassing clouds.5 mph81%30.00 "Hg10 mi
6:56 AM68 °FSunny.3 mph87%30.00 "Hg7 mi
5:56 AM64 °FFog.No wind94%30.00 "Hg6 mi
4:56 AM65 °FPassing clouds.No wind87%30.00 "Hg9 mi
3:56 AM65 °FClear.No wind91%30.00 "Hg10 mi
2:56 AM66 °FClear.No wind84%29.99 "Hg10 mi
1:56 AM70 °FClear.No wind73%30.01 "Hg10 mi
12:56 AM67 °FPassing clouds.No wind85%30.01 "Hg10 mi
11:56 PM
Thu, Jun 30
68 °FClear.3 mph82%30.00 "Hg10 mi
10:56 PM69 °FClear.3 mph79%30.01 "Hg10 mi
9:56 PM71 °FPassing clouds.No wind71%30.01 "Hg10 mi
8:56 PM73 °FPartly sunny.6 mph64%30.00 "Hg10 mi
7:56 PM74 °FScattered clouds.6 mph60%29.99 "Hg10 mi
6:56 PM76 °FScattered clouds.8 mph54%29.99 "Hg10 mi
5:56 PM84 °FScattered clouds.6 mph32%29.97 "Hg10 mi
4:56 PM84 °FScattered clouds.6 mph32%29.96 "Hg10 mi
3:56 PM84 °FScattered clouds.8 mph33%29.97 "Hg10 mi
Weather by CustomWeather, © 2016

See weather overviewHow to use our weather pages